Location: Delettes
(50.6178°N, 2.2123°E)
Time: 04:08:37
(UTC+00:00)

HJ-1C - Pass Details

Date: 27 February 2020
Orbit: 434 x 446 km, 97.2° (Epoch: 29 March)

Event Time Altitude Azimuth Distance (km) Brightness Sun altitude
Rises 18:41:44 0° 163° (SSE) 2,406 6.9 -12.4°
Reaches altitude 10° 18:43:44 10° 162° (SSE) 1,542 5.9 -12.7°
Maximum altitude 18:47:02 79° 77° (ENE) 451 3.2 -13.3°
Drops below altitude 10° 18:50:22 10° 349° (N) 1,556 6.3 -13.8°
Sets 18:52:24 0° 349° (NNW) 2,430 7.3 -14.1°
